Time,TemperatureF,DewpointF,PressureIn,WindDirection,WindDirectionDegrees,WindSpeedMPH,WindSpeedGustMPH,Humidity,HourlyPrecipIn,Conditions,Clouds,dailyrainin,SoftwareType,DateUTC
2013-05-03 00:00:00,42.1,15.0,26.95,ESE,110,0.0,0.0,33,0.00,CLR,,0.00,WeatherDisplay:10.37,2013-05-03 04:00:00,
2013-05-03 00:01:00,42.1,15.0,26.95,ESE,110,0.0,0.0,33,0.00,CLR,,0.00,WeatherDisplay:10.37,2013-05-03 04:01:00,
2013-05-03 00:02:00,42.1,15.0,26.95,ESE,110,0.0,0.0,33,0.00,CLR,,0.00,WeatherDisplay:10.37,2013-05-03 04:02:00,
2013-05-03 00:07:00,41.7,14.7,26.95,ESE,110,0.0,0.0,33,0.00,CLR,,0.00,WeatherDisplay:10.37,2013-05-03 04:07:00,
2013-05-03 00:12:00,41.5,16.5,26.95,ESE,110,0.0,0.0,36,0.00,CLR,,0.00,WeatherDisplay:10.37,2013-05-03 04:12:00,
2013-05-03 00:17:00,41.5,17.8,26.95,ESE,110,0.0,0.0,38,0.00,CLR,,0.00,WeatherDisplay:10.37,2013-05-03 04:17:00,
2013-05-03 00:22:00,41.2,17.5,26.95,ESE,110,0.0,0.0,38,0.00,CLR,,0.00,WeatherDisplay:10.37,2013-05-03 04:22:00,
2013-05-03 00:27:00,41.2,17.5,26.95,ESE,110,0.0,0.0,38,0.00,CLR,,0.00,WeatherDisplay:10.37,2013-05-03 04:27:00,
2013-05-03 00:32:00,41.2,17.5,26.95,ESE,109,0.0,0.0,38,0.00,CLR,,0.00,WeatherDisplay:10.37,2013-05-03 04:32:00,
2013-05-03 00:37:00,40.8,17.1,26.95,ESE,110,0.0,0.0,38,0.00,CLR,,0.00,WeatherDisplay:10.37,2013-05-03 04:37:00,
2013-05-03 00:42:00,40.6,17.0,26.95,ESE,110,0.0,0.0,38,0.00,CLR,,0.00,WeatherDisplay:10.37,2013-05-03 04:42:00,
2013-05-03 00:47:00,40.8,17.7,26.95,ESE,110,0.0,0.0,39,0.00,CLR,,0.00,WeatherDisplay:10.37,2013-05-03 04:47:00,
2013-05-03 00:52:00,40.6,17.6,26.95,ESE,110,0.0,0.0,39,0.00,CLR,,0.00,WeatherDisplay:10.37,2013-05-03 04:52:00,
2013-05-03 00:57:00,40.6,18.2,26.95,ESE,110,0.0,0.0,40,0.00,CLR,,0.00,WeatherDisplay:10.37,2013-05-03 04:57:00,
2013-05-03 01:02:00,40.6,18.2,26.95,ESE,110,0.0,0.0,40,0.00,CLR,,0.00,WeatherDisplay:10.37,2013-05-03 05:02:00,
2013-05-03 01:07:00,40.6,17.6,26.95,ESE,110,0.0,0.0,39,0.00,CLR,,0.00,WeatherDisplay:10.37,2013-05-03 05:07:00,
2013-05-03 01:12:00,41.0,17.9,26.95,ESE,110,2.3,0.0,39,0.00,CLR,,0.00,WeatherDisplay:10.37,2013-05-03 05:12:00,
2013-05-03 01:17:00,41.0,17.9,26.95,ESE,110,0.0,0.0,39,0.00,CLR,,0.00,WeatherDisplay:10.37,2013-05-03 05:17:00,
2013-05-03 01:22:00,41.0,17.9,26.95,ESE,110,0.0,0.0,39,0.00,CLR,,0.00,WeatherDisplay:10.37,2013-05-03 05:22:00,
2013-05-03 01:27:00,41.0,17.9,26.95,ESE,110,0.0,0.0,39,0.00,CLR,,0.00,WeatherDisplay:10.37,2013-05-03 05:27:00,
2013-05-03 01:32:00,40.8,17.7,26.95,ESE,110,0.0,0.0,39,0.00,CLR,,0.00,WeatherDisplay:10.37,2013-05-03 05:32:00,
2013-05-03 01:37:00,40.8,18.3,26.95,ESE,110,0.0,0.0,40,0.00,CLR,,0.00,WeatherDisplay:10.37,2013-05-03 05:37:00,
2013-05-03 01:42:00,40.8,18.3,26.95,ESE,110,0.0,0.0,40,0.00,CLR,,0.00,WeatherDisplay:10.37,2013-05-03 05:42:00,
2013-05-03 01:47:00,40.6,18.2,26.95,ESE,110,0.0,0.0,40,0.00,CLR,,0.00,WeatherDisplay:10.37,2013-05-03 05:47:00,
2013-05-03 01:52:00,40.6,18.2,26.95,ESE,110,0.0,0.0,40,0.00,CLR,,0.00,WeatherDisplay:10.37,2013-05-03 05:52:00,
2013-05-03 01:57:00,40.5,18.0,26.95,ESE,110,0.0,0.0,40,0.00,CLR,,0.00,WeatherDisplay:10.37,2013-05-03 05:57:00,
2013-05-03 02:02:00,40.3,17.8,26.95,ESE,110,0.0,0.0,40,0.00,CLR,,0.00,WeatherDisplay:10.37,2013-05-03 06:02:00,
2013-05-03 02:07:00,40.3,17.8,26.95,ESE,110,0.0,0.0,40,0.00,CLR,,0.00,WeatherDisplay:10.37,2013-05-03 06:07:00,
2013-05-03 02:12:00,40.3,17.8,26.95,ESE,110,0.0,0.0,40,0.00,CLR,,0.00,WeatherDisplay:10.37,2013-05-03 06:12:00,
2013-05-03 02:17:00,40.3,17.8,26.95,ESE,110,0.0,0.0,40,0.00,CLR,,0.00,WeatherDisplay:10.37,2013-05-03 06:17:00,
2013-05-03 02:22:00,40.3,17.8,26.95,ESE,110,0.0,0.0,40,0.00,CLR,,0.00,WeatherDisplay:10.37,2013-05-03 06:22:00,
2013-05-03 02:27:00,40.3,18.4,26.95,ESE,110,0.0,0.0,41,0.00,CLR,,0.00,WeatherDisplay:10.37,2013-05-03 06:27:00,
2013-05-03 02:32:00,40.1,18.3,26.95,ESE,110,0.0,0.0,41,0.00,CLR,,0.00,WeatherDisplay:10.37,2013-05-03 06:32:00,
2013-05-03 02:37:00,40.1,18.3,26.95,ESE,110,0.0,0.0,41,0.00,CLR,,0.00,WeatherDisplay:10.37,2013-05-03 06:37:00,
2013-05-03 02:42:00,40.1,18.3,26.95,ESE,109,0.0,0.0,41,0.00,CLR,,0.00,WeatherDisplay:10.37,2013-05-03 06:42:00,
2013-05-03 02:47:00,39.9,18.1,26.95,ESE,110,0.0,0.0,41,0.00,CLR,,0.00,WeatherDisplay:10.37,2013-05-03 06:47:00,
2013-05-03 02:52:00,40.1,18.3,26.95,ESE,110,0.0,0.0,41,0.00,CLR,,0.00,WeatherDisplay:10.37,2013-05-03 06:52:00,
2013-05-03 02:57:00,39.9,18.1,26.95,ESE,110,0.0,0.0,41,0.00,CLR,,0.00,WeatherDisplay:10.37,2013-05-03 06:57:00,
2013-05-03 03:02:00,39.7,17.9,26.95,ESE,110,0.0,0.0,41,0.00,CLR,,0.00,WeatherDisplay:10.37,2013-05-03 07:02:00,
2013-05-03 03:07:00,39.7,17.9,26.95,ESE,110,0.0,0.0,41,0.00,CLR,,0.00,WeatherDisplay:10.37,2013-05-03 07:07:00,
2013-05-03 03:12:00,39.7,17.9,26.95,ESE,110,0.0,0.0,41,0.00,CLR,,0.00,WeatherDisplay:10.37,2013-05-03 07:12:00,
2013-05-03 03:17:00,39.7,17.9,26.95,ESE,110,0.0,0.0,41,0.00,CLR,,0.00,WeatherDisplay:10.37,2013-05-03 07:17:00,
2013-05-03 03:22:00,39.7,19.0,26.95,South,183,0.0,0.0,43,0.00,CLR,,0.00,WeatherDisplay:10.37,2013-05-03 07:22:00,
2013-05-03 03:27:00,39.7,18.5,26.95,South,183,0.0,0.0,42,0.00,CLR,,0.00,WeatherDisplay:10.37,2013-05-03 07:27:00,
2013-05-03 03:32:00,39.9,19.2,26.95,South,183,0.0,0.0,43,0.00,CLR,,0.00,WeatherDisplay:10.37,2013-05-03 07:32:00,
2013-05-03 03:37:00,40.1,19.4,26.95,South,183,0.0,0.0,43,0.00,CLR,,0.00,WeatherDisplay:10.37,2013-05-03 07:37:00,
2013-05-03 03:42:00,39.9,19.2,26.95,South,183,0.0,0.0,43,0.00,CLR,,0.00,WeatherDisplay:10.37,2013-05-03 07:42:00,
2013-05-03 03:47:00,39.9,19.2,26.95,South,183,0.0,0.0,43,0.00,CLR,,0.00,WeatherDisplay:10.37,2013-05-03 07:47:00,
2013-05-03 03:52:00,40.1,19.4,26.95,South,183,0.0,0.0,43,0.00,CLR,,0.00,WeatherDisplay:10.37,2013-05-03 07:52:00,
2013-05-03 03:57:00,40.3,19.5,26.95,South,183,0.0,0.0,43,0.00,CLR,,0.00,WeatherDisplay:10.37,2013-05-03 07:57:00,
2013-05-03 04:02:00,40.3,19.5,26.95,South,183,0.0,0.0,43,0.00,CLR,,0.00,WeatherDisplay:10.37,2013-05-03 08:02:00,
2013-05-03 04:07:00,40.3,19.5,26.95,WSW,248,0.0,0.0,43,0.00,CLR,,0.00,WeatherDisplay:10.37,2013-05-03 08:07:00,
2013-05-03 04:12:00,40.3,19.5,26.95,WSW,248,0.0,0.0,43,0.00,CLR,,0.00,WeatherDisplay:10.37,2013-05-03 08:12:00,
2013-05-03 04:17:00,39.9,19.2,26.95,WSW,248,0.0,0.0,43,0.00,CLR,,0.00,WeatherDisplay:10.37,2013-05-03 08:17:00,
2013-05-03 04:22:00,39.9,19.2,26.95,North,5,0.0,0.0,43,0.00,CLR,,0.00,WeatherDisplay:10.37,2013-05-03 08:22:00,
2013-05-03 04:27:00,40.1,19.4,26.95,North,5,0.0,0.0,43,0.00,CLR,,0.00,WeatherDisplay:10.37,2013-05-03 08:27:00,
2013-05-03 04:32:00,39.7,19.0,26.95,North,5,0.0,0.0,43,0.00,CLR,,0.00,WeatherDisplay:10.37,2013-05-03 08:32:00,
2013-05-03 04:37:00,39.7,19.0,26.95,North,5,0.0,0.0,43,0.00,CLR,,0.00,WeatherDisplay:10.37,2013-05-03 08:37:00,
2013-05-03 04:42:00,39.7,19.0,26.95,North,10,0.0,0.0,43,0.00,CLR,,0.00,WeatherDisplay:10.37,2013-05-03 08:42:00,
2013-05-03 04:47:00,39.9,20.3,26.95,ENE,74,0.0,0.0,45,0.00,CLR,,0.00,WeatherDisplay:10.37,2013-05-03 08:47:00,
2013-05-03 04:52:00,39.9,19.7,26.95,NE,40,2.3,0.0,44,0.00,CLR,,0.00,WeatherDisplay:10.37,2013-05-03 08:52:00,
2013-05-03 04:57:00,40.1,20.4,26.95,NE,40,0.0,0.0,45,0.00,CLR,,0.00,WeatherDisplay:10.37,2013-05-03 08:57:00,
2013-05-03 05:02:00,40.1,20.4,26.95,NNE,29,3.6,0.0,45,0.00,CLR,,0.00,WeatherDisplay:10.37,2013-05-03 09:02:00,
2013-05-03 05:07:00,40.5,21.8,26.95,ESE,116,2.3,0.0,47,0.00,CLR,,0.00,WeatherDisplay:10.37,2013-05-03 09:07:00,
2013-05-03 05:12:00,40.6,22.0,26.95,ENE,61,3.5,0.0,47,0.00,CLR,,0.00,WeatherDisplay:10.37,2013-05-03 09:12:00,
2013-05-03 05:17:00,40.6,22.0,26.95,ENE,62,2.3,0.0,47,0.00,CLR,,0.00,WeatherDisplay:10.37,2013-05-03 09:17:00,
2013-05-03 05:22:00,40.5,21.8,26.95,ENE,70,2.3,0.0,47,0.00,CLR,,0.00,WeatherDisplay:10.37,2013-05-03 09:22:00,
2013-05-03 05:27:00,40.6,22.5,26.95,ENE,59,3.5,3.5,48,0.00,CLR,,0.00,WeatherDisplay:10.37,2013-05-03 09:27:00,
2013-05-03 05:32:00,40.6,22.0,26.95,ENE,59,2.3,0.0,47,0.00,CLR,,0.00,WeatherDisplay:10.37,2013-05-03 09:32:00,
2013-05-03 05:37:00,40.8,22.6,26.95,ENE,57,3.5,0.0,48,0.00,CLR,,0.00,WeatherDisplay:10.37,2013-05-03 09:37:00,
2013-05-03 05:42:00,41.0,22.8,26.95,ENE,61,3.5,3.5,48,0.00,CLR,,0.00,WeatherDisplay:10.37,2013-05-03 09:42:00,
2013-05-03 05:47:00,41.0,22.8,26.95,ENE,66,3.5,0.0,48,0.00,CLR,,0.00,WeatherDisplay:10.37,2013-05-03 09:47:00,
2013-05-03 05:52:00,41.0,22.8,26.95,East,88,0.0,0.0,48,0.00,CLR,,0.00,WeatherDisplay:10.37,2013-05-03 09:52:00,
2013-05-03 05:57:00,41.0,22.8,26.95,ENE,63,0.0,0.0,48,0.00,CLR,,0.00,WeatherDisplay:10.37,2013-05-03 09:57:00,
2013-05-03 06:02:00,41.0,22.8,26.95,ENE,65,3.5,3.5,48,0.00,CLR,,0.00,WeatherDisplay:10.37,2013-05-03 10:02:00,
2013-05-03 06:07:00,41.2,23.0,26.95,ENE,75,3.5,0.0,48,0.00,CLR,,0.00,WeatherDisplay:10.37,2013-05-03 10:07:00,
2013-05-03 06:12:00,41.5,23.3,26.95,ENE,61,3.6,3.6,48,0.00,CLR,,0.00,WeatherDisplay:10.37,2013-05-03 10:12:00,
2013-05-03 06:17:00,41.5,22.8,26.95,ENE,61,0.0,0.0,47,0.00,CLR,,0.00,WeatherDisplay:10.37,2013-05-03 10:17:00,
2013-05-03 06:22:00,41.5,22.8,26.95,ENE,71,2.7,0.0,47,0.00,CLR,,0.00,WeatherDisplay:10.37,2013-05-03 10:22:00,
2013-05-03 06:27:00,41.7,22.9,26.95,NNW,330,2.3,0.0,47,0.00,CLR,,0.00,WeatherDisplay:10.37,2013-05-03 10:27:00,
2013-05-03 06:32:00,42.1,23.3,26.95,ENE,66,4.6,4.6,47,0.00,CLR,,0.00,WeatherDisplay:10.37,2013-05-03 10:32:00,
2013-05-03 06:37:00,42.3,22.4,26.95,NW,311,3.5,0.0,45,0.00,CLR,,0.00,WeatherDisplay:10.37,2013-05-03 10:37:00,
2013-05-03 06:42:00,42.3,22.4,26.95,ENE,76,2.3,0.0,45,0.00,CLR,,0.00,WeatherDisplay:10.37,2013-05-03 10:42:00,
2013-05-03 06:47:00,42.4,22.0,26.95,East,82,3.5,0.0,44,0.00,CLR,,0.00,WeatherDisplay:10.37,2013-05-03 10:47:00,
2013-05-03 06:52:00,42.8,21.8,26.95,ESE,117,2.3,0.0,43,0.00,CLR,,0.00,WeatherDisplay:10.37,2013-05-03 10:52:00,
2013-05-03 06:57:00,43.0,22.0,26.95,NNE,20,0.0,0.0,43,0.00,CLR,,0.00,WeatherDisplay:10.37,2013-05-03 10:57:00,
2013-05-03 07:02:00,43.5,22.5,26.95,East,81,3.1,0.0,43,0.00,CLR,,0.00,WeatherDisplay:10.37,2013-05-03 11:02:00,
2013-05-03 07:07:00,44.1,20.7,26.95,ENE,58,3.5,0.0,39,0.00,CLR,,0.00,WeatherDisplay:10.37,2013-05-03 11:07:00,
2013-05-03 07:12:00,44.4,21.0,26.95,North,357,3.5,0.0,39,0.00,CLR,,0.00,WeatherDisplay:10.37,2013-05-03 11:12:00,
2013-05-03 07:17:00,45.5,20.7,26.95,East,87,3.5,3.5,37,0.00,CLR,,0.00,WeatherDisplay:10.37,2013-05-03 11:17:00,
2013-05-03 07:22:00,47.5,16.8,26.95,NE,55,3.1,0.0,29,0.00,CLR,,0.00,WeatherDisplay:10.37,2013-05-03 11:22:00,
2013-05-03 07:27:00,49.3,18.3,26.95,East,82,3.5,3.5,29,0.00,CLR,,0.00,WeatherDisplay:10.37,2013-05-03 11:27:00,
2013-05-03 07:32:00,49.6,18.6,26.95,East,81,3.5,3.5,29,0.00,CLR,,0.00,WeatherDisplay:10.37,2013-05-03 11:32:00,
2013-05-03 07:37:00,50.2,19.1,26.95,SSE,151,4.6,4.6,29,0.00,CLR,,0.00,WeatherDisplay:10.37,2013-05-03 11:37:00,
2013-05-03 07:42:00,49.8,18.8,26.95,ESE,111,3.5,0.0,29,0.00,CLR,,0.00,WeatherDisplay:10.37,2013-05-03 11:42:00,
2013-05-03 07:47:00,51.3,20.0,26.95,East,81,3.5,3.5,29,0.00,CLR,,0.00,WeatherDisplay:10.37,2013-05-03 11:47:00,
2013-05-03 07:52:00,52.2,20.0,26.95,ESE,103,3.5,3.5,28,0.00,CLR,,0.00,WeatherDisplay:10.37,2013-05-03 11:52:00,
2013-05-03 07:57:00,52.5,20.3,26.95,North,353,3.5,3.5,28,0.00,CLR,,0.00,WeatherDisplay:10.37,2013-05-03 11:57:00,
2013-05-03 08:02:00,52.9,20.6,26.95,ENE,64,4.5,4.5,28,0.00,CLR,,0.00,WeatherDisplay:10.37,2013-05-03 12:02:00,
2013-05-03 08:07:00,54.5,22.0,26.95,ENE,60,4.6,4.6,28,0.00,CLR,,0.00,WeatherDisplay:10.37,2013-05-03 12:07:00,
2013-05-03 08:12:00,56.8,23.2,26.95,East,84,4.9,4.9,27,0.00,CLR,,0.00,WeatherDisplay:10.37,2013-05-03 12:12:00,
2013-05-03 08:17:00,55.8,22.2,26.95,ESE,108,4.6,4.6,27,0.00,CLR,,0.00,WeatherDisplay:10.37,2013-05-03 12:17:00,
2013-05-03 08:22:00,58.1,24.3,26.95,East,95,4.6,4.6,27,0.00,CLR,,0.00,WeatherDisplay:10.37,2013-05-03 12:22:00,
2013-05-03 08:27:00,57.6,23.8,26.95,ENE,61,5.8,5.8,27,0.00,CLR,,0.00,WeatherDisplay:10.37,2013-05-03 12:27:00,
2013-05-03 08:32:00,56.1,22.6,26.95,NE,41,3.5,3.5,27,0.00,CLR,,0.00,WeatherDisplay:10.37,2013-05-03 12:32:00,
2013-05-03 08:37:00,54.0,21.6,26.95,East,94,3.5,3.5,28,0.00,CLR,,0.00,WeatherDisplay:10.37,2013-05-03 12:37:00,
2013-05-03 08:42:00,55.0,22.5,26.95,ESE,112,4.0,4.0,28,0.00,CLR,,0.00,WeatherDisplay:10.37,2013-05-03 12:42:00,
2013-05-03 08:47:00,54.5,22.0,26.95,East,83,3.5,3.5,28,0.00,CLR,,0.00,WeatherDisplay:10.37,2013-05-03 12:47:00,
2013-05-03 08:52:00,55.6,22.1,26.95,East,89,2.3,0.0,27,0.00,CLR,,0.00,WeatherDisplay:10.37,2013-05-03 12:52:00,
2013-05-03 08:57:00,56.1,22.6,26.95,ENE,71,5.8,5.8,27,0.00,CLR,,0.00,WeatherDisplay:10.37,2013-05-03 12:57:00,
2013-05-03 09:02:00,55.0,22.5,26.95,NW,310,4.6,4.6,28,0.00,CLR,,0.00,WeatherDisplay:10.37,2013-05-03 13:02:00,
2013-05-03 09:07:00,54.1,21.7,26.95,NNW,330,2.3,0.0,28,0.00,CLR,,0.00,WeatherDisplay:10.37,2013-05-03 13:07:00,
2013-05-03 09:12:00,55.6,22.1,26.95,ENE,64,3.5,3.5,27,0.00,CLR,,0.00,WeatherDisplay:10.37,2013-05-03 13:12:00,
2013-05-03 09:17:00,56.1,22.6,26.95,ENE,70,3.5,3.5,27,0.00,CLR,,0.00,WeatherDisplay:10.37,2013-05-03 13:17:00,
2013-05-03 09:22:00,56.7,23.0,26.95,WNW,292,2.7,2.7,27,0.00,CLR,,0.00,WeatherDisplay:10.37,2013-05-03 13:22:00,
2013-05-03 09:27:00,57.6,23.8,26.95,SE,137,5.8,5.8,27,0.00,CLR,,0.00,WeatherDisplay:10.37,2013-05-03 13:27:00,
2013-05-03 09:32:00,60.1,26.0,26.95,NNW,343,5.8,5.8,27,0.00,CLR,,0.00,WeatherDisplay:10.37,2013-05-03 13:32:00,
2013-05-03 09:37:00,61.2,26.0,26.95,ESE,115,4.6,4.6,26,0.00,CLR,,0.00,WeatherDisplay:10.37,2013-05-03 13:37:00,
2013-05-03 09:42:00,61.2,26.0,26.95,East,89,3.5,0.0,26,0.00,CLR,,0.00,WeatherDisplay:10.37,2013-05-03 13:42:00,
2013-05-03 09:47:00,61.0,25.8,26.95,ESE,110,5.8,5.8,26,0.00,CLR,,0.00,WeatherDisplay:10.37,2013-05-03 13:47:00,
2013-05-03 09:52:00,59.7,25.6,26.95,SSW,193,5.8,5.8,27,0.00,CLR,,0.00,WeatherDisplay:10.37,2013-05-03 13:52:00,
2013-05-03 09:57:00,60.1,27.7,26.95,ENE,78,5.8,5.8,29,0.00,CLR,,0.00,WeatherDisplay:10.37,2013-05-03 13:57:00,
2013-05-03 10:02:00,59.9,25.8,26.95,ENE,57,5.8,5.8,27,0.00,CLR,,0.00,WeatherDisplay:10.37,2013-05-03 14:02:00,
2013-05-03 10:07:00,60.4,26.3,26.95,East,94,3.5,3.5,27,0.00,CLR,,0.00,WeatherDisplay:10.37,2013-05-03 14:07:00,
2013-05-03 10:12:00,60.1,26.0,26.95,ESE,104,5.8,5.8,27,0.00,CLR,,0.00,WeatherDisplay:10.37,2013-05-03 14:12:00,
2013-05-03 10:17:00,59.0,25.0,26.95,East,89,3.5,3.5,27,0.00,CLR,,0.00,WeatherDisplay:10.37,2013-05-03 14:17:00,
2013-05-03 10:22:00,57.9,24.1,26.95,East,100,3.5,3.5,27,0.00,CLR,,0.00,WeatherDisplay:10.37,2013-05-03 14:22:00,
2013-05-03 10:27:00,57.9,24.1,26.95,ESE,106,3.5,0.0,27,0.00,CLR,,0.00,WeatherDisplay:10.37,2013-05-03 14:27:00,
2013-05-03 10:32:00,58.1,24.3,26.95,East,99,5.8,5.8,27,0.00,CLR,,0.00,WeatherDisplay:10.37,2013-05-03 14:32:00,
2013-05-03 10:37:00,57.4,23.6,26.95,ENE,70,3.5,3.5,27,0.00,CLR,,0.00,WeatherDisplay:10.37,2013-05-03 14:37:00,
2013-05-03 10:42:00,57.9,24.1,26.95,ENE,76,3.6,3.6,27,0.00,CLR,,0.00,WeatherDisplay:10.37,2013-05-03 14:42:00,
2013-05-03 10:47:00,59.4,25.3,26.95,East,99,6.9,6.9,27,0.00,CLR,,0.00,WeatherDisplay:10.37,2013-05-03 14:47:00,
2013-05-03 10:52:00,59.7,25.6,26.95,SE,133,5.8,5.8,27,0.00,CLR,,0.00,WeatherDisplay:10.37,2013-05-03 14:52:00,
2013-05-03 10:57:00,59.7,25.6,26.95,East,92,5.8,5.8,27,0.00,CLR,,0.00,WeatherDisplay:10.37,2013-05-03 14:57:00,
2013-05-03 11:02:00,59.7,25.6,26.95,ESE,104,3.5,4.0,27,0.00,CLR,,0.00,WeatherDisplay:10.37,2013-05-03 15:02:00,
2013-05-03 11:07:00,59.4,25.3,26.95,ENE,57,3.5,3.6,27,0.00,CLR,,0.00,WeatherDisplay:10.37,2013-05-03 15:07:00,
2013-05-03 11:12:00,61.3,26.1,26.95,ESE,104,4.6,4.6,26,0.00,CLR,,0.00,WeatherDisplay:10.37,2013-05-03 15:12:00,
2013-05-03 11:17:00,62.2,26.9,26.95,SE,129,3.5,0.0,26,0.00,CLR,,0.00,WeatherDisplay:10.37,2013-05-03 15:17:00,
2013-05-03 11:22:00,62.2,26.9,26.95,ESE,103,3.5,3.5,26,0.00,CLR,,0.00,WeatherDisplay:10.37,2013-05-03 15:22:00,
2013-05-03 11:27:00,63.7,28.1,26.95,ENE,75,3.5,3.5,26,0.00,CLR,,0.00,WeatherDisplay:10.37,2013-05-03 15:27:00,
2013-05-03 11:32:00,66.6,29.6,26.95,ESE,110,5.8,5.8,25,0.00,CLR,,0.00,WeatherDisplay:10.37,2013-05-03 15:32:00,
2013-05-03 11:37:00,68.7,31.4,26.95,ESE,108,5.8,5.8,25,0.00,CLR,,0.00,WeatherDisplay:10.37,2013-05-03 15:37:00,
2013-05-03 11:42:00,67.1,30.1,26.95,East,100,5.8,5.8,25,0.00,CLR,,0.00,WeatherDisplay:10.37,2013-05-03 15:42:00,
2013-05-03 11:47:00,68.2,31.0,26.95,SSE,162,5.8,5.8,25,0.00,CLR,,0.00,WeatherDisplay:10.37,2013-05-03 15:47:00,
2013-05-03 11:52:00,69.8,31.4,26.95,SE,142,5.8,5.8,24,0.00,CLR,,0.00,WeatherDisplay:10.37,2013-05-03 15:52:00,
2013-05-03 11:57:00,69.3,31.9,26.95,SSE,152,4.0,4.0,25,0.00,CLR,,0.00,WeatherDisplay:10.37,2013-05-03 15:57:00,
2013-05-03 12:02:00,68.7,31.4,26.95,SE,140,5.8,5.8,25,0.00,CLR,,0.00,WeatherDisplay:10.37,2013-05-03 16:02:00,
2013-05-03 12:07:00,69.1,31.8,26.95,South,189,3.5,3.5,25,0.00,CLR,,0.00,WeatherDisplay:10.37,2013-05-03 16:07:00,
2013-05-03 12:12:00,70.0,31.5,26.95,East,91,3.5,4.0,24,0.00,CLR,,0.00,WeatherDisplay:10.37,2013-05-03 16:12:00,
2013-05-03 12:17:00,70.0,31.5,26.95,SE,127,4.6,4.6,24,0.00,CLR,,0.00,WeatherDisplay:10.37,2013-05-03 16:17:00,
2013-05-03 12:22:00,70.2,31.7,26.95,East,92,5.8,5.8,24,0.00,CLR,,0.00,WeatherDisplay:10.37,2013-05-03 16:22:00,
2013-05-03 12:27:00,70.0,31.5,26.95,ESE,105,4.6,4.6,24,0.00,CLR,,0.00,WeatherDisplay:10.37,2013-05-03 16:27:00,
2013-05-03 12:32:00,70.5,32.0,26.95,ESE,104,5.8,5.8,24,0.00,CLR,,0.00,WeatherDisplay:10.37,2013-05-03 16:32:00,
2013-05-03 12:37:00,70.7,32.1,26.95,ESE,108,5.8,5.8,24,0.00,CLR,,0.00,WeatherDisplay:10.37,2013-05-03 16:37:00,
2013-05-03 12:42:00,70.5,32.0,26.95,WSW,245,5.8,5.8,24,0.00,CLR,,0.00,WeatherDisplay:10.37,2013-05-03 16:42:00,
2013-05-03 12:47:00,70.9,32.3,26.95,East,88,3.5,3.5,24,0.00,CLR,,0.00,WeatherDisplay:10.37,2013-05-03 16:47:00,
2013-05-03 12:52:00,69.6,32.2,26.95,ENE,64,4.9,4.9,25,0.00,CLR,,0.00,WeatherDisplay:10.37,2013-05-03 16:52:00,
2013-05-03 12:57:00,70.2,31.7,26.95,East,97,5.8,5.8,24,0.00,CLR,,0.00,WeatherDisplay:10.37,2013-05-03 16:57:00,
2013-05-03 13:02:00,71.2,32.6,26.95,East,96,3.5,3.5,24,0.00,CLR,,0.00,WeatherDisplay:10.37,2013-05-03 17:02:00,
2013-05-03 13:07:00,72.0,33.2,26.95,ENE,78,5.8,5.8,24,0.00,CLR,,0.00,WeatherDisplay:10.37,2013-05-03 17:07:00,
2013-05-03 13:12:00,70.9,32.3,26.95,East,99,5.8,5.8,24,0.00,CLR,,0.00,WeatherDisplay:10.37,2013-05-03 17:12:00,
2013-05-03 13:17:00,68.9,31.6,26.95,ESE,110,6.9,6.9,25,0.00,CLR,,0.00,WeatherDisplay:10.37,2013-05-03 17:17:00,
2013-05-03 13:22:00,67.1,30.1,26.95,ESE,102,5.8,5.8,25,0.00,CLR,,0.00,WeatherDisplay:10.37,2013-05-03 17:22:00,
2013-05-03 13:27:00,65.7,28.8,26.95,SSW,208,8.1,8.1,25,0.00,CLR,,0.00,WeatherDisplay:10.37,2013-05-03 17:27:00,
2013-05-03 13:32:00,68.9,31.6,26.95,East,98,5.8,5.8,25,0.00,CLR,,0.00,WeatherDisplay:10.37,2013-05-03 17:32:00,
2013-05-03 13:37:00,67.6,30.5,26.95,East,100,5.8,5.8,25,0.00,CLR,,0.00,WeatherDisplay:10.37,2013-05-03 17:37:00,
2013-05-03 13:42:00,66.9,29.9,26.95,ESE,113,3.6,4.5,25,0.00,CLR,,0.00,WeatherDisplay:10.37,2013-05-03 17:42:00,
2013-05-03 13:47:00,66.9,29.9,26.95,East,80,5.8,5.8,25,0.00,CLR,,0.00,WeatherDisplay:10.37,2013-05-03 17:47:00,
2013-05-03 13:52:00,68.9,31.6,26.95,East,101,3.5,4.0,25,0.00,CLR,,0.00,WeatherDisplay:10.37,2013-05-03 17:52:00,
2013-05-03 13:57:00,71.2,32.6,26.95,NE,51,3.5,3.5,24,0.00,CLR,,0.00,WeatherDisplay:10.37,2013-05-03 17:57:00,
2013-05-03 14:02:00,71.6,32.9,26.95,East,91,5.8,5.8,24,0.00,CLR,,0.00,WeatherDisplay:10.37,2013-05-03 18:02:00,
2013-05-03 14:07:00,72.1,33.3,26.95,SSE,161,5.8,5.8,24,0.00,CLR,,0.00,WeatherDisplay:10.37,2013-05-03 18:07:00,
2013-05-03 14:12:00,71.2,32.6,26.95,East,92,5.8,5.8,24,0.00,CLR,,0.00,WeatherDisplay:10.37,2013-05-03 18:12:00,
2013-05-03 14:17:00,68.5,31.3,26.95,SE,126,5.8,5.8,25,0.00,CLR,,0.00,WeatherDisplay:10.37,2013-05-03 18:17:00,
2013-05-03 14:22:00,70.3,31.8,26.95,SSE,165,5.8,5.8,24,0.00,CLR,,0.00,WeatherDisplay:10.37,2013-05-03 18:22:00,
2013-05-03 14:27:00,69.3,31.9,26.95,ENE,75,3.5,3.6,25,0.00,CLR,,0.00,WeatherDisplay:10.37,2013-05-03 18:27:00,
2013-05-03 14:32:00,70.0,31.5,26.95,ESE,102,3.5,3.5,24,0.00,CLR,,0.00,WeatherDisplay:10.37,2013-05-03 18:32:00,
2013-05-03 14:37:00,71.8,33.0,26.95,ENE,70,4.6,4.6,24,0.00,CLR,,0.00,WeatherDisplay:10.37,2013-05-03 18:37:00,
2013-05-03 14:42:00,71.1,32.4,26.95,ESE,117,4.6,4.6,24,0.00,CLR,,0.00,WeatherDisplay:10.37,2013-05-03 18:42:00,
2013-05-03 14:47:00,69.1,31.8,26.95,ENE,66,8.1,8.1,25,0.00,CLR,,0.00,WeatherDisplay:10.37,2013-05-03 18:47:00,
2013-05-03 14:52:00,65.8,29.0,26.95,ESE,105,5.8,5.8,25,0.00,CLR,,0.00,WeatherDisplay:10.37,2013-05-03 18:52:00,
2013-05-03 14:57:00,63.1,27.7,26.95,SSE,148,6.3,6.3,26,0.00,CLR,,0.00,WeatherDisplay:10.37,2013-05-03 18:57:00,
2013-05-03 15:02:00,62.1,26.7,26.95,East,101,5.8,5.8,26,0.00,CLR,,0.00,WeatherDisplay:10.37,2013-05-03 19:02:00,
2013-05-03 15:07:00,62.1,26.7,26.95,SSW,200,3.5,3.5,26,0.00,CLR,,0.00,WeatherDisplay:10.37,2013-05-03 19:07:00,
2013-05-03 15:12:00,61.7,26.4,26.95,East,100,4.5,4.5,26,0.00,CLR,,0.00,WeatherDisplay:10.37,2013-05-03 19:12:00,
2013-05-03 15:17:00,63.0,27.5,26.95,East,92,5.8,5.8,26,0.00,CLR,,0.00,WeatherDisplay:10.37,2013-05-03 19:17:00,
2013-05-03 15:22:00,63.5,28.0,26.95,East,95,5.8,5.8,26,0.00,CLR,,0.00,WeatherDisplay:10.37,2013-05-03 19:22:00,
2013-05-03 15:27:00,62.6,27.2,26.95,ENE,75,5.8,5.8,26,0.00,CLR,,0.00,WeatherDisplay:10.37,2013-05-03 19:27:00,
2013-05-03 15:32:00,61.9,26.6,26.95,East,81,5.8,5.8,26,0.00,CLR,,0.00,WeatherDisplay:10.37,2013-05-03 19:32:00,
2013-05-03 15:37:00,61.2,26.0,26.95,East,88,5.8,5.8,26,0.00,CLR,,0.00,WeatherDisplay:10.37,2013-05-03 19:37:00,
2013-05-03 15:42:00,61.3,26.1,26.95,East,99,6.3,6.3,26,0.00,CLR,,0.00,WeatherDisplay:10.37,2013-05-03 19:42:00,
2013-05-03 15:47:00,60.8,25.7,26.95,East,87,5.8,5.8,26,0.00,CLR,,0.00,WeatherDisplay:10.37,2013-05-03 19:47:00,
2013-05-03 15:52:00,61.0,25.8,26.95,ESE,114,5.8,5.8,26,0.00,CLR,,0.00,WeatherDisplay:10.37,2013-05-03 19:52:00,
2013-05-03 15:57:00,60.8,25.7,26.95,ESE,105,5.8,5.8,26,0.00,CLR,,0.00,WeatherDisplay:10.37,2013-05-03 19:57:00,
2013-05-03 16:02:00,62.4,27.0,26.95,East,80,5.8,5.8,26,0.00,CLR,,0.00,WeatherDisplay:10.37,2013-05-03 20:02:00,
2013-05-03 16:07:00,61.9,26.6,26.95,ENE,69,5.8,5.8,26,0.00,CLR,,0.00,WeatherDisplay:10.37,2013-05-03 20:07:00,
2013-05-03 16:12:00,61.0,25.8,26.95,East,81,7.6,7.6,26,0.00,CLR,,0.00,WeatherDisplay:10.37,2013-05-03 20:12:00,
2013-05-03 16:17:00,62.8,27.4,26.95,East,100,8.1,8.1,26,0.00,CLR,,0.00,WeatherDisplay:10.37,2013-05-03 20:17:00,
2013-05-03 16:22:00,61.2,26.0,26.95,East,83,3.5,3.5,26,0.00,CLR,,0.00,WeatherDisplay:10.37,2013-05-03 20:22:00,
2013-05-03 16:27:00,61.5,26.3,26.95,East,85,3.5,3.5,26,0.00,CLR,,0.00,WeatherDisplay:10.37,2013-05-03 20:27:00,
2013-05-03 16:32:00,61.5,26.3,26.95,ESE,111,5.8,5.8,26,0.00,CLR,,0.00,WeatherDisplay:10.37,2013-05-03 20:32:00,
2013-05-03 16:37:00,61.0,25.8,26.95,East,101,5.8,5.8,26,0.00,CLR,,0.00,WeatherDisplay:10.37,2013-05-03 20:37:00,
2013-05-03 16:42:00,66.0,29.2,26.95,ESE,108,4.0,4.0,25,0.00,CLR,,0.00,WeatherDisplay:10.37,2013-05-03 20:42:00,
2013-05-03 16:47:00,66.4,29.5,26.95,ESE,104,6.9,6.9,25,0.00,CLR,,0.00,WeatherDisplay:10.37,2013-05-03 20:47:00,
2013-05-03 16:52:00,63.9,28.3,26.95,NNE,17,3.5,0.0,26,0.00,CLR,,0.00,WeatherDisplay:10.37,2013-05-03 20:52:00,
2013-05-03 16:57:00,62.8,27.4,26.95,ESE,114,5.8,5.8,26,0.00,CLR,,0.00,WeatherDisplay:10.37,2013-05-03 20:57:00,
2013-05-03 17:02:00,60.3,26.1,26.95,SE,131,4.6,4.6,27,0.00,CLR,,0.00,WeatherDisplay:10.37,2013-05-03 21:02:00,
2013-05-03 17:07:00,58.8,24.9,26.95,SE,128,5.8,5.8,27,0.00,CLR,,0.00,WeatherDisplay:10.37,2013-05-03 21:07:00,
2013-05-03 17:12:00,59.2,25.2,26.95,ESE,111,3.5,0.0,27,0.00,CLR,,0.00,WeatherDisplay:10.37,2013-05-03 21:12:00,
2013-05-03 17:17:00,58.1,24.3,26.95,SE,135,4.6,4.6,27,0.00,CLR,,0.00,WeatherDisplay:10.37,2013-05-03 21:17:00,
2013-05-03 17:22:00,57.6,23.8,26.95,ESE,114,3.5,3.5,27,0.00,CLR,,0.00,WeatherDisplay:10.37,2013-05-03 21:22:00,
2013-05-03 17:27:00,57.4,23.6,26.95,South,171,3.5,3.5,27,0.00,CLR,,0.00,WeatherDisplay:10.37,2013-05-03 21:27:00,
2013-05-03 17:32:00,57.4,23.6,26.95,SE,126,3.5,3.6,27,0.00,CLR,,0.00,WeatherDisplay:10.37,2013-05-03 21:32:00,
2013-05-03 17:37:00,57.2,23.5,26.95,ESE,113,4.6,4.6,27,0.00,CLR,,0.00,WeatherDisplay:10.37,2013-05-03 21:37:00,
2013-05-03 17:42:00,56.8,23.2,26.95,SSE,154,5.8,5.8,27,0.00,CLR,,0.00,WeatherDisplay:10.37,2013-05-03 21:42:00,
2013-05-03 17:47:00,57.2,23.5,26.95,SE,124,4.6,4.6,27,0.00,CLR,,0.00,WeatherDisplay:10.37,2013-05-03 21:47:00,
2013-05-03 17:52:00,56.8,23.2,26.95,ESE,111,4.6,4.6,27,0.00,CLR,,0.00,WeatherDisplay:10.37,2013-05-03 21:52:00,
2013-05-03 17:57:00,56.7,23.0,26.95,ESE,103,4.6,4.6,27,0.00,CLR,,0.00,WeatherDisplay:10.37,2013-05-03 21:57:00,
2013-05-03 18:02:00,56.5,22.9,26.95,SSW,210,4.6,4.6,27,0.00,CLR,,0.00,WeatherDisplay:10.37,2013-05-03 22:02:00,
2013-05-03 18:07:00,56.3,22.7,26.95,ENE,75,5.8,5.8,27,0.00,CLR,,0.00,WeatherDisplay:10.37,2013-05-03 22:07:00,
2013-05-03 18:12:00,56.1,22.6,26.95,SW,227,3.5,3.5,27,0.00,CLR,,0.00,WeatherDisplay:10.37,2013-05-03 22:12:00,
2013-05-03 18:17:00,56.1,22.6,26.95,ESE,103,0.0,0.0,27,0.00,CLR,,0.00,WeatherDisplay:10.37,2013-05-03 22:17:00,
2013-05-03 18:22:00,55.9,22.4,26.95,ESE,112,3.5,3.5,27,0.00,CLR,,0.00,WeatherDisplay:10.37,2013-05-03 22:22:00,
2013-05-03 18:27:00,55.9,22.4,26.95,SSE,162,2.3,0.0,27,0.00,CLR,,0.00,WeatherDisplay:10.37,2013-05-03 22:27:00,
2013-05-03 18:32:00,55.6,22.1,26.95,East,89,3.5,0.0,27,0.00,CLR,,0.00,WeatherDisplay:10.37,2013-05-03 22:32:00,
2013-05-03 18:37:00,55.4,21.9,26.95,East,87,3.5,3.5,27,0.00,CLR,,0.00,WeatherDisplay:10.37,2013-05-03 22:37:00,
2013-05-03 18:42:00,55.2,22.6,26.95,ESE,117,3.5,3.5,28,0.00,CLR,,0.00,WeatherDisplay:10.37,2013-05-03 22:42:00,
2013-05-03 18:47:00,54.7,22.2,26.95,East,99,2.3,0.0,28,0.00,CLR,,0.00,WeatherDisplay:10.37,2013-05-03 22:47:00,
2013-05-03 18:52:00,54.3,21.9,26.95,ENE,76,3.5,3.5,28,0.00,CLR,,0.00,WeatherDisplay:10.37,2013-05-03 22:52:00,
2013-05-03 18:57:00,54.0,21.6,26.95,ESE,109,0.0,0.0,28,0.00,CLR,,0.00,WeatherDisplay:10.37,2013-05-03 22:57:00,
2013-05-03 19:02:00,53.6,21.2,26.95,ESE,104,3.5,3.5,28,0.00,CLR,,0.00,WeatherDisplay:10.37,2013-05-03 23:02:00,
2013-05-03 19:07:00,53.4,21.1,26.95,ESE,104,2.3,0.0,28,0.00,CLR,,0.00,WeatherDisplay:10.37,2013-05-03 23:07:00,
2013-05-03 19:12:00,53.2,20.9,26.95,ESE,104,0.0,0.0,28,0.00,CLR,,0.00,WeatherDisplay:10.37,2013-05-03 23:12:00,
2013-05-03 19:17:00,52.9,20.6,26.95,ESE,104,2.3,0.0,28,0.00,CLR,,0.00,WeatherDisplay:10.37,2013-05-03 23:17:00,
2013-05-03 19:22:00,52.7,20.5,26.95,SSE,152,0.0,0.0,28,0.00,CLR,,0.00,WeatherDisplay:10.37,2013-05-03 23:22:00,
2013-05-03 19:27:00,52.7,20.5,26.95,SSE,152,0.0,0.0,28,0.00,CLR,,0.00,WeatherDisplay:10.37,2013-05-03 23:27:00,
2013-05-03 19:32:00,52.3,20.2,26.95,ESE,104,2.3,0.0,28,0.00,CLR,,0.00,WeatherDisplay:10.37,2013-05-03 23:32:00,
2013-05-03 19:37:00,52.0,19.8,26.95,ESE,104,0.0,0.0,28,0.00,CLR,,0.00,WeatherDisplay:10.37,2013-05-03 23:37:00,
2013-05-03 19:42:00,51.6,20.4,26.95,ESE,104,0.0,0.0,29,0.00,CLR,,0.00,WeatherDisplay:10.37,2013-05-03 23:42:00,
2013-05-03 19:47:00,51.1,19.9,26.95,ESE,104,0.0,0.0,29,0.00,CLR,,0.00,WeatherDisplay:10.37,2013-05-03 23:47:00,
2013-05-03 19:52:00,50.5,19.4,26.95,ESE,104,0.0,0.0,29,0.00,CLR,,0.00,WeatherDisplay:10.37,2013-05-03 23:52:00,
2013-05-03 19:57:00,50.2,19.1,26.95,ESE,104,0.0,0.0,29,0.00,CLR,,0.00,WeatherDisplay:10.37,2013-05-03 23:57:00,
2013-05-03 20:02:00,50.0,16.4,26.95,ESE,104,0.0,0.0,26,0.00,CLR,,0.00,WeatherDisplay:10.37,2013-05-04 00:02:00,
2013-05-03 20:07:00,49.8,18.8,26.95,ESE,104,0.0,0.0,29,0.00,CLR,,0.00,WeatherDisplay:10.37,2013-05-04 00:07:00,
2013-05-03 20:12:00,49.3,18.3,26.95,ESE,104,0.0,0.0,29,0.00,CLR,,0.00,WeatherDisplay:10.37,2013-05-04 00:12:00,
2013-05-03 20:17:00,49.1,18.2,26.95,ESE,104,0.0,0.0,29,0.00,CLR,,0.00,WeatherDisplay:10.37,2013-05-04 00:17:00,
2013-05-03 20:22:00,48.7,17.9,26.95,ESE,104,0.0,0.0,29,0.00,CLR,,0.00,WeatherDisplay:10.37,2013-05-04 00:22:00,
2013-05-03 20:27:00,48.7,17.9,26.95,ESE,104,0.0,0.0,29,0.00,CLR,,0.00,WeatherDisplay:10.37,2013-05-04 00:27:00,
2013-05-03 20:32:00,48.6,17.7,26.95,ESE,104,0.0,0.0,29,0.00,CLR,,0.00,WeatherDisplay:10.37,2013-05-04 00:32:00,
2013-05-03 20:37:00,48.4,17.5,26.95,ESE,104,0.0,0.0,29,0.00,CLR,,0.00,WeatherDisplay:10.37,2013-05-04 00:37:00,
2013-05-03 20:42:00,48.2,17.4,26.95,ESE,104,0.0,0.0,29,0.00,CLR,,0.00,WeatherDisplay:10.37,2013-05-04 00:42:00,
2013-05-03 20:47:00,47.8,17.1,26.95,ESE,104,0.0,0.0,29,0.00,CLR,,0.00,WeatherDisplay:10.37,2013-05-04 00:47:00,
2013-05-03 20:52:00,47.7,16.9,26.95,ESE,104,0.0,0.0,29,0.00,CLR,,0.00,WeatherDisplay:10.37,2013-05-04 00:52:00,
2013-05-03 20:57:00,47.7,16.9,26.95,ESE,104,0.0,0.0,29,0.00,CLR,,0.00,WeatherDisplay:10.37,2013-05-04 00:57:00,
2013-05-03 21:02:00,47.5,16.8,26.95,ESE,104,0.0,0.0,29,0.00,CLR,,0.00,WeatherDisplay:10.37,2013-05-04 01:02:00,
2013-05-03 21:07:00,47.1,16.4,26.95,ESE,104,0.0,0.0,29,0.00,CLR,,0.00,WeatherDisplay:10.37,2013-05-04 01:07:00,
2013-05-03 21:12:00,47.1,16.4,26.95,ESE,104,0.0,0.0,29,0.00,CLR,,0.00,WeatherDisplay:10.37,2013-05-04 01:12:00,
2013-05-03 21:17:00,46.9,16.3,26.95,ESE,104,0.0,0.0,29,0.00,CLR,,0.00,WeatherDisplay:10.37,2013-05-04 01:17:00,
2013-05-03 21:22:00,46.6,16.0,26.95,ESE,104,0.0,0.0,29,0.00,CLR,,0.00,WeatherDisplay:10.37,2013-05-04 01:22:00,
2013-05-03 21:27:00,46.4,15.8,26.95,ESE,104,0.0,0.0,29,0.00,CLR,,0.00,WeatherDisplay:10.37,2013-05-04 01:27:00,
2013-05-03 21:32:00,46.0,16.3,26.95,ESE,104,0.0,0.0,30,0.00,CLR,,0.00,WeatherDisplay:10.37,2013-05-04 01:32:00,
2013-05-03 21:37:00,45.7,16.0,26.95,ESE,104,0.0,0.0,30,0.00,CLR,,0.00,WeatherDisplay:10.37,2013-05-04 01:37:00,
2013-05-03 21:42:00,45.3,15.7,26.95,ESE,104,0.0,0.0,30,0.00,CLR,,0.00,WeatherDisplay:10.37,2013-05-04 01:42:00,
2013-05-03 21:47:00,45.1,15.5,26.95,ESE,104,0.0,0.0,30,0.00,CLR,,0.00,WeatherDisplay:10.37,2013-05-04 01:47:00,
2013-05-03 21:52:00,45.1,15.5,26.95,ESE,104,0.0,0.0,30,0.00,CLR,,0.00,WeatherDisplay:10.37,2013-05-04 01:52:00,
2013-05-03 21:57:00,45.1,15.5,26.95,ESE,104,0.0,0.0,30,0.00,CLR,,0.00,WeatherDisplay:10.37,2013-05-04 01:57:00,
2013-05-03 22:02:00,45.1,15.5,26.95,ESE,104,0.0,0.0,30,0.00,CLR,,0.00,WeatherDisplay:10.37,2013-05-04 02:02:00,
2013-05-03 22:07:00,45.0,15.3,26.95,ESE,104,0.0,0.0,30,0.00,CLR,,0.00,WeatherDisplay:10.37,2013-05-04 02:07:00,
2013-05-03 22:12:00,44.8,15.2,26.95,ESE,104,0.0,0.0,30,0.00,CLR,,0.00,WeatherDisplay:10.37,2013-05-04 02:12:00,
2013-05-03 22:17:00,44.8,16.7,26.95,ESE,104,0.0,0.0,32,0.00,CLR,,0.00,WeatherDisplay:10.37,2013-05-04 02:17:00,
2013-05-03 22:22:00,44.8,16.7,26.95,ESE,104,0.0,0.0,32,0.00,CLR,,0.00,WeatherDisplay:10.37,2013-05-04 02:22:00,
2013-05-03 22:27:00,44.6,16.5,26.95,ESE,104,0.0,0.0,32,0.00,CLR,,0.00,WeatherDisplay:10.37,2013-05-04 02:27:00,
2013-05-03 22:32:00,44.4,17.1,26.95,ESE,104,0.0,0.0,33,0.00,CLR,,0.00,WeatherDisplay:10.37,2013-05-04 02:32:00,
2013-05-03 22:37:00,44.2,16.9,26.95,ESE,104,0.0,0.0,33,0.00,CLR,,0.00,WeatherDisplay:10.37,2013-05-04 02:37:00,
2013-05-03 22:42:00,44.1,16.8,26.95,ESE,104,0.0,0.0,33,0.00,CLR,,0.00,WeatherDisplay:10.37,2013-05-04 02:42:00,
2013-05-03 22:47:00,43.9,16.6,26.95,ESE,104,0.0,0.0,33,0.00,CLR,,0.00,WeatherDisplay:10.37,2013-05-04 02:47:00,
2013-05-03 22:52:00,43.7,16.4,26.95,ESE,104,0.0,0.0,33,0.00,CLR,,0.00,WeatherDisplay:10.37,2013-05-04 02:52:00,
2013-05-03 22:57:00,43.5,16.3,26.95,ESE,104,0.0,0.0,33,0.00,CLR,,0.00,WeatherDisplay:10.37,2013-05-04 02:57:00,
2013-05-03 23:02:00,43.3,17.5,26.95,ESE,104,0.0,0.0,35,0.00,CLR,,0.00,WeatherDisplay:10.37,2013-05-04 03:02:00,
2013-05-03 23:07:00,43.2,17.3,26.95,ESE,104,0.0,0.0,35,0.00,CLR,,0.00,WeatherDisplay:10.37,2013-05-04 03:07:00,
2013-05-03 23:12:00,43.2,17.3,26.95,ESE,104,0.0,0.0,35,0.00,CLR,,0.00,WeatherDisplay:10.37,2013-05-04 03:12:00,
2013-05-03 23:17:00,43.0,17.2,26.95,ESE,104,0.0,0.0,35,0.00,CLR,,0.00,WeatherDisplay:10.37,2013-05-04 03:17:00,
2013-05-03 23:22:00,42.8,18.9,26.95,ESE,104,0.0,0.0,38,0.00,CLR,,0.00,WeatherDisplay:10.37,2013-05-04 03:22:00,
2013-05-03 23:27:00,42.6,18.8,26.95,ESE,104,0.0,0.0,38,0.00,CLR,,0.00,WeatherDisplay:10.37,2013-05-04 03:27:00,
2013-05-03 23:32:00,42.4,18.6,26.95,ESE,104,0.0,0.0,38,0.00,CLR,,0.00,WeatherDisplay:10.37,2013-05-04 03:32:00,
2013-05-03 23:37:00,42.4,18.6,26.95,ESE,104,0.0,0.0,38,0.00,CLR,,0.00,WeatherDisplay:10.37,2013-05-04 03:37:00,
2013-05-03 23:42:00,42.3,18.4,26.95,ESE,104,0.0,0.0,38,0.00,CLR,,0.00,WeatherDisplay:10.37,2013-05-04 03:42:00,
2013-05-03 23:47:00,42.1,18.3,26.95,ESE,104,0.0,0.0,38,0.00,CLR,,0.00,WeatherDisplay:10.37,2013-05-04 03:47:00,
2013-05-03 23:52:00,41.9,18.7,26.95,ESE,104,0.0,0.0,39,0.00,CLR,,0.00,WeatherDisplay:10.37,2013-05-04 03:52:00,
2013-05-03 23:57:00,41.9,18.7,26.95,ESE,104,0.0,0.0,39,0.00,CLR,,0.00,WeatherDisplay:10.37,2013-05-04 03:57:00,